Location: Chippewa Lake
(41.0698°N, 81.9010°W)
Time: 18:17:53
(UTC+00:00)

ISS - Visible Passes

Search period start: 24 January 2022 00:00
Search period end: 03 February 2022 00:00
Orbit: 413 x 422 km, 51.6° (Epoch: 24 January)

Date Brightness Start Highest point End Pass type
(mag) Time Alt. Az. Time Alt. Az. Time Alt. Az.
24 Jan -1.5 00:16:11 10° NW 00:18:21 16° NNW 00:18:38 16° N visible
24 Jan -1.7 23:27:38 10° WNW 23:30:07 19° NNW 23:32:36 10° NNE visible
26 Jan -1.3 00:17:48 10° NW 00:19:28 13° N 00:19:28 13° N visible
26 Jan -1.4 23:29:21 10° NW 23:31:15 14° N 23:33:10 10° NNE visible
28 Jan -1.4 00:18:48 10° NNW 00:20:16 14° N 00:20:16 14° N visible
28 Jan -1.5 23:30:40 10° NNW 23:32:25 14° N 23:34:12 10° NE visible
30 Jan -1.8 00:19:16 10° NNW 00:21:08 19° N 00:21:08 19° N visible
30 Jan -1.8 23:31:18 10° NNW 23:33:31 16° NNE 23:35:10 12° NE visible
31 Jan -0.8 01:07:35 10° NW 01:08:06 14° NW 01:08:06 14° NW visible
01 Feb -2.7 00:19:35 10° NW 00:22:13 33° N 00:22:13 33° N visible
01 Feb -2.4 23:31:37 10° NW 23:34:27 25° NNE 23:36:25 15° ENE visible
02 Feb -1.2 01:08:07 10° WNW 01:09:22 21° WNW 01:09:22 21° WNW visible
